Regional Weather Roundup
Issued by NWS Goodland, KS

Home | Current Version | Previous Version | Graphics & Text | Print | Product List | Glossary On
Versions: 1 2 3 4 5 6 7 8 9 10 11 12 13 14 15 16 17 18 19 20 21 22 23 24 25 26 27 28 29 30 31 32 33 34 35 36 37 38 39 40 41 42 43 44 45 46 47 48 49 50
000
ASUS43 KGLD 230408
RWRGLD

GOODLAND FORECAST AREA HOURLY WEATHER ROUNDUP
NATIONAL WEATHER SERVICE GOODLAND KS
900 PM MST SUN JAN 22 2017

...OFFICIAL OBSERVATIONS...

CITY           SKY/WX    TMP DP  RH WIND       PRES   REMARKS
GOODLAND KS    CLEAR     28  23  81 W7        29.91F
HILL CITY KS   CLEAR     32  27  81 W7        29.93R
IMPERIAL NEB   CLEAR     30  24  78 W5        29.90F
MCCOOK NEB     CLEAR     28  24  85 W10       29.91R WCI  19
AKRON CO       CLOUDY    33  13  43 E6        29.87F
BURLINGTON CO  CLOUDY    29  22  75 SW10      29.92S WCI  20
LIMON CO       CLOUDY    26  20  77 SE5       29.89S
$$

...UNOFFICIAL OBSERVATIONS...

CITY           SKY/WX    TMP DP  RH WIND       PRES   REMARKS
LENORA KS        N/A     36  32  85 W5          N/A
NORTON KS      CLEAR     30  23  74 W7        29.90S
SHARON SPRINGS   N/A     29  25  83 W7          N/A
TRENTON NEB      N/A     31  32 100 NW5         N/A
KIT CARSON CO    N/A     28  23  81 CALM        N/A
YUMA CO        FAIR      23  19  86 W5        29.89F
$$




USA.gov is the U.S. government's official web portal to all federal, state and local government web resources and services.